Regional Weather Roundup
Issued by NWS Grand Forks, ND

Home | Current Version | Previous Version | Graphics & Text | Print | Product List | Glossary On
Versions: 1 2 3 4 5 6 7 8 9 10 11 12 13 14 15 16 17 18 19 20 21 22 23 24 25 26 27 28 29 30 31 32 33 34 35 36 37 38 39 40 41 42 43 44 45 46 47 48 49 50
000
ASUS43 KFGF 240931
RWRFGF
PRAIRIE TO PINES  WEATHER ROUNDUP
NATIONAL WEATHER SERVICE EASTERN NORTH DAKOTA/GRAND FORKS ND
400 AM CDT SUN SEP 24 2017

 **SATELLITE DATA USED TO AUGMENT SKY COVER AT AUTOMATED STATIONS**
 *****  WEATHER ACROSS EASTERN NORTH DAKOTA  *****

CITY           SKY/WX    TMP DP  RH WIND       PRES   REMARKS
GRAND FORKS    LGT RAIN  53  53 100 N13       29.94S FOG
GRAND FRKS AFB NOT AVBL
DEVILS LAKE    LGT RAIN  49  48  97 N14       30.00F
FARGO          RAIN      57  56  96 N7        29.88F
WAHPETON ARPT  CLOUDY    59  57  94 N3        29.84F
$$

 ***** WEATHER ACROSS CENTRAL AND WESTERN NORTH DAKOTA  *****

CITY           SKY/WX    TMP DP  RH WIND       PRES   REMARKS
BISMARCK       LGT RAIN  49  48  97 N12       29.99F
MINOT          LGT RAIN  47  46  97 N10       30.04F
JAMESTOWN      RAIN      50  49  96 N13       29.93F
MINOT AFB      LGT RAIN  46  45  97 N12       30.03F
GARRISON         N/A     46  46 100 N5        30.02F
WILLISTON      LGT RAIN  45  42  89 NW7       30.11F
DICKINSON      LGT RAIN  44  43  96 N12       30.03S
HETTINGER      LGT RAIN  44  42  93 N10       30.02R
$$

 *****  OTHER AIRPORT OBSERVATIONS IN OUR AREA  *****

CITY           SKY/WX    TMP DP  RH WIND       PRES   REMARKS
WALHALLA       LGT RAIN N/A N/A N/A NW10      30.02R
GRAFTON AIRPOR NOT AVBL
VALLEY CITY AR NOT AVBL
CANDO          LGT RAIN  48  48 100 N13       30.04F
CAVALIER APRT  RAIN      50  50 100 N13       29.99S
GWINNER        CLOUDY    54  54 100 N7        29.90R FOG
SHEYENNE NWR     N/A     55  55 100 N5        29.95S
ROLLA          LGT RAIN  46  46 100 N12       30.04F
 ***** THE ABOVE OBSERVATIONS ARE NON NWS ARE NOT QUALITY
       CONTROLLED AND MAY MIS-REPORT RAIN FOR SNOW...
$$

  *****  WEATHER ACROSS NORTHERN MINNESOTA  *****

CITY           SKY/WX    TMP DP  RH WIND       PRES   REMARKS
FLAG ISLAND    RAIN      54  52  94 NE6       29.95F
WARROAD        DRIZZLE   55  52  88 NE13      29.94F
ROSEAU         DRIZZLE   55  50  82 NE8       29.94F
HALLOCK        RAIN      52  52 100 N12       29.96S
THF RVR FALLS  LGT RAIN  54  53  97 E13       29.93R
BAUDETTE       LGT RAIN  55  55 100 NE8       29.96F
WASKISH        CLOUDY    55  55 100 E7        29.94S
CROOKSTON      RAIN      55  54  94 NE3       29.93S
STEPHEN NDAWN    N/A     52  52 100 VRB9        N/A
GREENBUSH NDAW   N/A     52  52 100 N8          N/A
$$
  *****  WEATHER ACROSS CENTRAL AND WEST MINNESOTA  *****

CITY           SKY/WX    TMP DP  RH WIND       PRES   REMARKS
FOSSTON        LGT RAIN  54  54 100 CALM      29.92R
BEMIDJI        CLOUDY    56  56  99 CALM      29.93S
PARK RAPIDS    CLOUDY    60  58  92 E8        29.90F
ELBOW LAKE     FAIR      61  61  99 SE12      29.86F
WADENA         CLOUDY    59  59 100 E8        29.90F
DETROIT LAKES  CLOUDY    59  59 100 SE6       29.91R
MOORHEAD       RAIN      55  55 100 N5        29.89F
FERGUS FALLS   CLOUDY    61  61 100 E6        29.86F
MORRIS MN      NOT AVBL
STAPLES        MOCLDY    59  59 100 E3        29.92F
$$
  *****  WEATHER ELSEWHERE ACROSS MINNESOTA  *****

CITY           SKY/WX    TMP DP  RH WIND       PRES   REMARKS
DULUTH         FAIR      64  64 100 E8        29.97S
INTRNTL FALLS  LGT RAIN  58  56  93 E6        29.94F
ELY            MOCLDY    61  61 100 E3        29.98F
CLOQUET        FAIR      63  61  94 E5        29.95F
WHEATON        MOCLDY    63  59  88 E9        29.85F
BRAINERD       CLOUDY    61  60  97 N3        29.95S
HIBBING        MOCLDY    59  59 100 N3        29.96F
ALEXANDRIA     CLOUDY    61  60  97 E10       29.91F
SAINT CLOUD    CLOUDY    62  62 100 NW3       29.93S
MINNEAPOLIS    FAIR      76  65  68 S10       29.93F
$$

  *****  WEATHER ACROSS SOUTH DAKOTA  *****

CITY           SKY/WX    TMP DP  RH WIND       PRES   REMARKS
SIOUX FALLS    FAIR      60  60 100 E5        29.88S
BROOKINGS      MOCLDY    60  58  92 S7        29.89R
WATERTOWN      CLOUDY    61  61 100 SE10G20   29.86R
HURON          CLOUDY    56  55  97 NE5       29.86F
SISSETON         N/A     58  58 100 CALM      29.85F
ABERDEEN       LGT RAIN  54  54 100 N10       29.88F
MITCHELL       CLOUDY    57  55  93 N5        29.88F
PIERRE         RAIN      52  51  97 NW7       29.89F
MOBRIDGE       LGT RAIN  52  50  93 N12       29.90F
RAPID CITY     NOT AVBL
$$

  *****  SOME WEATHER IN NEARBY STATES *****

CITY           SKY/WX    TMP DP  RH WIND       PRES   REMARKS
GLASGOW MT     CLOUDY    47  40  76 E5        30.11R
GREAT FALLS MT CLOUDY    35  31  85 SW7       30.10R
CHEYENNE WY    CLOUDY    43  41  93 SW5       29.98S FOG
SCOTTSBLUFF NE CLOUDY    46  43  89 NW9       29.96S
OMAHA NE       MOCLDY    73  65  75 S7        29.91S
DES MOINES IA  FAIR      73  64  73 SE7       29.96S
DAVENPORT IA   FAIR      68  63  84 SE7       30.05S
CHICAGO IL     FAIR      72  65  78 SE3       30.07S
EAU CLAIRE WI  FAIR      69  63  81 S3        29.99S
LA CROSSE WI   FAIR      72  67  84 SE5       30.01R
$$

  *****  SOME NATIONAL WEATHER *****

CITY           SKY/WX    TMP DP  RH WIND       PRES   REMARKS
LA GUARDIA NY  FAIR      72  61  68 NE3       30.04R
RALEIGH NC     MOCLDY    63  63 100 CALM      30.07R
ATLANTA GA     FAIR      71  65  81 CALM      30.04R
NEW ORLEANS LA FAIR      78  71  79 NE6       29.91S
OKLAHOMA CITY  FAIR      70  65  84 SE9       29.91S
ALBUQUERQUE NM MOCLDY    59  53  80 NW7       29.91R
SALT LAKE CITY LGT RAIN  45  43  93 SE3       29.91S
LOS ANGELES CA FAIR      62  56  80 NE5       29.86S
BOISE ID       FAIR      41  34  76 S3        30.02S
SEATTLE WA     FAIR      54  47  77 N5        30.14R
$$

*** WEATHER ACROSS MANITOBA...SASKATCHEWAN AND ONTARIO ***
                ***ONTARIO***

CITY           SKY/WX    TMP DP  RH WIND       PRES   REMARKS
GERALDTON      CLOUDY    63  61  94 N5        30.03F
THUNDER BAY    CLOUDY    64  64 100 CALM      29.99F
SIOUX LOOKOUT  LGT RAIN  55  55 100 E5        30.02F FOG
TORONTO        CLEAR     70  64  83 N3        30.12S
BIG TROUT LK   CLOUDY    46  46 100 VRB2      30.15R FOG
PICKLE LAKE    NOT AVBL
DRYDEN         LGT RAIN  55  55 100 E3        30.01F VSB 3/4
KENORA         LGT RAIN  54  52  94 NE8       29.99F FOG
$$
                *** MANITOBA***

CITY           SKY/WX    TMP DP  RH WIND       PRES   REMARKS
BRANDON        LGT RAIN  46  45  93 N6        30.09F
DAUPHIN        LGT RAIN  46  46 100 W3        30.13S
ISLAND LAKE    CLOUDY    45  41  87 N5        30.18S
PILOT MOUND      N/A     46  46 100 N8          N/A
THE PAS        CLOUDY    46  45  93 E6        30.16F FOG
THOMPSON       CLOUDY    39  37  93 N2        30.23R
WINNIPEG       LGT RAIN  50  48  93 N10       30.02F
LYNN LAKE      CLOUDY    37  37 100 E5        30.22R
CHURCHILL      CLOUDY    36  36 100 VRB2      30.27S
GILLAM         CLOUDY    39  37  93 N9        30.26R
$$
                ***SASKATCHEWAN***

CITY           SKY/WX    TMP DP  RH WIND       PRES   REMARKS
ESTEVAN        CLOUDY    43  43 100 NW5       30.12F
KINDERSLEY     MOCLDY    36  34  93 N3        30.11
LLOYDMINSTER   CLOUDY    41  37  87 S6        30.10F
PRINCE ALBERT  CLOUDY    39  37  93 N2        30.16S
REGINA         CLOUDY    37  36  93 N2        30.13F
YORKTON        CLOUDY    43  43 100 E2        30.14S
N. BATTLEFORD  CLOUDY    43  37  81 E6        30.14F
LA RONGE       MOCLDY    39  39 100 CALM      30.15S
SASKATOON      CLOUDY    45  39  81 S5        30.14F
SWIFT CURRENT    N/A     37  36  93 S8        30.11S
$$
NOTE: THESE ARE AUTOMATED STATIONS WITH LIMITED QUALITY CONTROL
      "FAIR" INDICATES FEW OR NO CLOUDS BELOW 12,000 FEET WITH NO
      SIGNIFICANT WEATHER AND/OR OBSTRUCTIONS TO VISIBILITY.
      SKY/WX - SKY CONDITION AND SIGNIFICANT WEATHER.
      TMP - AIR TEMPERATURE.    DP   - DEWPOINT TEMPERATURE.
      RH  - RELATIVE HUMIDITY.  PRES - PRESSURE.
      HX  - HEAT INDEX.         WCI  - WIND CHILL INDEX.
$




USA.gov is the U.S. government's official web portal to all federal, state and local government web resources and services.